Weather History for Casper, WY

Change the Weather History Date:

Thursday, November 29, 2012

  Actual Average Record
Temperature  
Mean Temperature 47 °F 27 °F  
Max Temperature 55 °F 37 °F 58 °F (1999)
Min Temperature 38 °F 16 °F -10 °F (1975)
Degree Days  
Heating Degree Days 18 38  
Month to date heating degree days 745 919  
Since 1 July heating degree days 1516 1818  
Cooling Degree Days 0 0  
Month to date cooling degree days 0 0  
Year to date cooling degree days 697 422  
Moisture  
Dew Point 21 °F    
Average Humidity 37    
Maximum Humidity 48    
Minimum Humidity 26    
Precipitation  
Precipitation 0.00 in 0.02 in 0.19 in (1996)
Month to date precipitation 0.49 0.74  
Year to date precipitation 7.49 12.01  
Snow  
Snow 0.00 in 0.40 in - ()
Month to date snowfall 7.5 10.0  
Since 1 July snowfall 12.7 19.2  
Since 1 September snowfall 12.7 19.2  
Snow Depth 0.00 in    
Sea Level Pressure  
Sea Level Pressure 29.92 in    
Wind  
Wind Speed 17 mph (SW)    
Max Wind Speed 32 mph    
Max Gust Speed 41 mph    
Visibility 10 miles    
Events      
T = Trace of Precipitation, MM = Missing Value Source: NWS Daily Summary

Daily Weather History Graph

Daily Weather History Graph

Search for Another Location

Airport:

Trip Planner

Search our weather history database for the weather conditions in past years. The results will help you decide how hot, cold, wet, or windy it might be!

Date:

Astronomy

Nov. 29, 2012 Rise Set
Actual Time 7:15 AM MST 4:33 PM MST
Civil Twilight 6:43 AM MST 5:04 PM MST
Nautical Twilight 6:08 AM MST 5:39 PM MST
Astronomical Twilight 5:34 AM MST 6:13 PM MST
Moon 5:38 PM MST (11/29) 8:04 AM MST (11/29)
Length of Visible Light 10h 20m
Length of Day
9h 17m
Full, 99% of the Moon is Illuminated
Nov 29
Full
Dec 6
Last Quarter
Dec 13
New
Dec 19
First Quarter
Dec 28
Full

Hourly Weather History & Observations

Time (MST) Temp. Windchill Dew Point Humidity Pressure Visibility Wind Dir Wind Speed Gust Speed Precip Events Conditions
12:53 AM 46.9 °F - 18.0 °F 32% 29.86 in 10.0 mi SW 21.9 mph 34.5 mph N/A   Clear
1:53 AM 45.0 °F 37.4 °F 19.0 °F 36% 29.86 in 10.0 mi SSW 18.4 mph - N/A   Clear
2:53 AM 44.1 °F 37.7 °F 19.0 °F 37% 29.86 in 10.0 mi SW 12.7 mph - N/A   Clear
3:53 AM 42.1 °F - 19.0 °F 40% 29.88 in 10.0 mi North - - N/A   Clear
4:53 AM 43.0 °F 33.8 °F 19.0 °F 38% 29.89 in 10.0 mi SW 23.0 mph 29.9 mph N/A   Mostly Cloudy
5:53 AM 39.9 °F 32.1 °F 19.0 °F 43% 29.90 in 10.0 mi WSW 13.8 mph - N/A   Clear
6:53 AM 39.0 °F 31.4 °F 19.9 °F 46% 29.92 in 10.0 mi SW 12.7 mph - N/A   Clear
7:53 AM 42.1 °F 33.3 °F 21.0 °F 43% 29.92 in 10.0 mi SSW 19.6 mph 24.2 mph N/A   Clear
8:53 AM 46.0 °F 38.3 °F 23.0 °F 40% 29.91 in 10.0 mi SW 20.7 mph - N/A   Clear
9:53 AM 50.0 °F - 24.1 °F 36% 29.91 in 10.0 mi SW 23.0 mph 34.5 mph N/A   Clear
10:53 AM 52.0 °F - 23.0 °F 32% 29.93 in 10.0 mi West 28.8 mph 40.3 mph N/A   Clear
11:53 AM 53.1 °F - 24.1 °F 32% 29.91 in 10.0 mi WSW 29.9 mph 35.7 mph N/A   Clear
12:53 PM 55.0 °F - 23.0 °F 29% 29.90 in 10.0 mi WSW 20.7 mph 31.1 mph N/A   Clear
1:53 PM 54.0 °F - 19.9 °F 26% 29.90 in 10.0 mi West 23.0 mph 28.8 mph N/A   Partly Cloudy
2:53 PM 52.0 °F - 19.9 °F 28% 29.91 in 10.0 mi West 17.3 mph - N/A   Clear
3:53 PM 48.9 °F - 19.0 °F 31% 29.94 in 10.0 mi SW 12.7 mph - N/A   Clear
4:53 PM 41.0 °F 36.4 °F 19.0 °F 41% 29.98 in 10.0 mi WSW 6.9 mph - N/A   Clear
5:53 PM 42.1 °F 35.7 °F 19.9 °F 41% 29.99 in 10.0 mi WSW 11.5 mph - N/A   Clear
6:53 PM 41.0 °F 34.3 °F 19.9 °F 43% 30.00 in 10.0 mi SW 11.5 mph - N/A   Clear
7:53 PM 43.0 °F 34.8 °F 21.9 °F 43% 29.96 in 10.0 mi SW 18.4 mph - N/A   Clear
8:53 PM 39.9 °F 33.4 °F 21.9 °F 49% 29.97 in 10.0 mi WSW 10.4 mph - N/A   Clear
9:53 PM 42.1 °F 34.9 °F 21.9 °F 45% 29.94 in 10.0 mi SW 13.8 mph - N/A   Clear
10:53 PM 41.0 °F 33.5 °F 21.9 °F 47% 29.94 in 10.0 mi SW 13.8 mph - N/A   Clear
11:53 PM 43.0 °F 36.0 °F 21.9 °F 43% 29.93 in 10.0 mi SSW 13.8 mph - N/A   Clear